DW8761 Weather Reports


Display with metric or nautical units.
time (UTC)temp
F
wind
direction
speed
MPH
gust
MPH
rain 1hr
in
rain 24hr
in
rain mn
in
humidity
%
barometer
mb
20180223142116 28 125 5.0 11.0 0.00 0.00 0.00 90 1033.6
20180223140558 28 157 5.0 10.0 0.00 0.00 0.00 90 1033.5
20180223135046 28 178 4.0 10.0 0.00 0.00 0.00 90 1033.5
20180223133534 29 161 4.0 8.0 0.00 0.00 0.00 90 1033.6
20180223132002 29 155 3.0 8.0 0.00 0.00 0.00 90 1033.4
20180223130448 29 166 4.0 6.0 0.00 0.00 0.00 90 1033.5
20180223124933 29 113 4.0 9.0 0.00 0.00 0.00 91 1033.4
20180223123422 29 166 2.0 8.0 0.00 0.00 0.00 91 1033.3
20180223121905 29 130 3.0 8.0 0.00 0.00 0.00 91 1033.3
20180223120357 29 120 4.0 8.0 0.00 0.00 0.00 91 1033.1
20180223114835 29 161 5.0 9.0 0.00 0.00 0.00 91 1033.2
20180223113321 29 127 4.0 9.0 0.00 0.00 0.00 91 1033.2
20180223111803 29 194 4.0 11.0 0.00 0.00 0.00 91 1033.1
20180223110250 29 144 4.0 7.0 0.00 0.00 0.00 91 1032.9
20180223104733 29 181 3.0 10.0 0.00 0.00 0.00 91 1033.0
20180223103217 29 153 3.0 7.0 0.00 0.00 0.00 91 1033.0
20180223101704 29 157 2.0 8.0 0.00 0.00 0.00 91 1033.0
20180223100147 29 165 3.0 6.0 0.00 0.00 0.00 91 1033.0
20180223094628 29 153 2.0 8.0 0.00 0.00 0.00 91 1033.0
20180223093110 29 181 4.0 6.0 0.00 0.00 0.00 90 1032.9
20180223091557 29 191 3.0 6.0 0.00 0.00 0.00 90 1033.0
20180223090022 29 146 1.0 5.0 0.00 0.00 0.00 90 1032.8
20180223084510 29 167 2.0 4.0 0.00 0.00 0.00 89 1032.6
20180223082951 29 167 2.0 3.0 0.00 0.00 0.00 88 1032.5
20180223081439 29 169 1.0 5.0 0.00 0.00 0.00 88 1032.5
20180223075907 29 140 2.0 3.0 0.00 0.00 0.00 87 1032.4
20180223074350 29 139 1.0 3.0 0.00 0.00 0.00 86 1032.2
20180223072825 30 139 1.0 4.0 0.00 0.00 0.00 86 1032.0
20180223071315 30 157 2.0 8.0 0.00 0.00 0.00 85 1031.9
20180223065805 30 157 3.0 7.0 0.00 0.00 0.00 84 1031.7
20180223064254 29 96 1.0 4.0 0.00 0.00 0.00 84 1031.5
20180223062734 29 84 1.0 2.0 0.00 0.00 0.00 83 1031.5
20180223061219 29 84 0.0 2.0 0.00 0.00 0.00 83 1031.3
20180223055701 30 84 1.0 2.0 0.00 0.00 0.00 82 1031.3
20180223054152 30 84 0.0 2.0 0.00 0.00 0.00 81 1031.0
20180223052641 31 84 0.0 0.0 0.00 0.00 0.00 80 1031.0
20180223051123 32 84 0.0 3.0 0.00 0.00 0.00 80 1030.8
20180223045604 33 84 0.0 2.0 0.00 0.00 0.00 79 1030.5
20180223044050 34 84 1.0 3.0 0.00 0.00 0.00 78 1030.2
20180223042537 35 83 1.0 3.0 0.00 0.00 0.00 78 1029.9
20180223041008 35 82 1.0 4.0 0.00 0.00 0.00 78 1029.8
20180223035449 35 54 1.0 3.0 0.00 0.00 0.00 78 1029.7
20180223033930 35 79 1.0 4.0 0.00 0.00 0.00 78 1029.5
20180223032421 36 71 2.0 4.0 0.00 0.00 0.00 76 1029.5
20180223030859 37 111 1.0 6.0 0.00 0.00 0.00 75 1029.1
20180223025341 37 102 2.0 4.0 0.00 0.00 0.00 74 1029.0
20180223023830 37 57 1.0 9.0 0.00 0.00 0.00 74 1028.9
20180223022314 38 46 6.0 13.0 0.00 0.00 0.00 73 1028.5
20180223020807 38 91 2.0 15.0 0.00 0.00 0.00 74 1028.2
20180223015250 38 87 4.0 14.0 0.00 0.00 0.00 74 1028.1
20180223013736 38 53 4.0 15.0 0.00 0.00 0.00 73 1027.8
20180223012223 38 5 4.0 12.0 0.00 0.00 0.00 73 1027.6
20180223010705 39 39 5.0 14.0 0.00 0.00 0.00 72 1027.5
20180223005145 39 26 3.0 10.0 0.00 0.00 0.00 72 1027.4
20180223003635 40 355 5.0 12.0 0.00 0.00 0.00 72 1027.3
20180223002119 41 40 4.0 17.0 0.00 0.00 0.00 72 1027.3
20180223000605 42 300 4.0 12.0 0.00 0.00 0.00 74 1027.0
20180222235047 42 251 3.0 16.0 0.00 0.00 0.00 77 1026.8
20180222233517 42 32 5.0 13.0 0.00 0.00 0.00 79 1026.7
20180222231958 42 267 3.0 12.0 0.00 0.00 0.00 80 1026.6
20180222230442 42 50 2.0 9.0 0.00 0.00 0.00 80 1026.5
20180222224925 42 21 2.0 13.0 0.00 0.00 0.00 81 1026.3
20180222223407 42 323 4.0 8.0 0.00 0.00 0.00 83 1026.3
20180222221856 42 355 2.0 13.0 0.00 0.00 0.00 84 1026.2
20180222220345 42 199 2.0 9.0 0.00 0.00 0.00 85 1026.2
20180222214825 42 56 2.0 7.0 0.00 0.00 0.00 87 1026.1
20180222213310 41 319 1.0 12.0 0.00 0.00 0.00 89 1026.0
20180222211758 41 9 3.0 12.0 0.00 0.00 0.00 90 1026.1
20180222210244 40 44 2.0 14.0 0.00 0.00 0.00 91 1025.9
20180222204726 41 42 1.0 12.0 0.00 0.00 0.00 91 1025.9
20180222203211 40 344 3.0 10.0 0.00 0.00 0.00 92 1026.0
20180222201702 39 22 2.0 10.0 0.00 0.00 0.00 94 1026.0
20180222200138 38 81 4.0 10.0 0.00 0.00 0.00 93 1026.0
20180222194625 38 29 1.0 11.0 0.00 0.00 0.00 94 1026.0
20180222193113 38 334 2.0 8.0 0.00 0.00 0.00 95 1025.7
20180222191603 38 355 2.0 5.0 0.00 0.00 0.00 95 1025.5
20180222190051 38 348 1.0 5.0 0.00 0.00 0.00 96 1025.5
20180222184519 38 18 2.0 6.0 0.00 0.00 0.00 96 1025.2
20180222183002 38 53 0.0 4.0 0.00 0.00 0.00 96 1024.8
20180222181445 38 5 2.0 6.0 0.00 0.00 0.00 96 1024.7
20180222175930 37 55 2.0 6.0 0.00 0.00 0.00 97 1024.4
20180222174412 36 46 3.0 6.0 0.00 0.00 0.00 97 1024.2
20180222172859 34 60 1.0 7.0 0.00 0.00 0.00 97 1024.0
20180222171335 34 69 1.0 4.0 0.00 0.00 0.00 97 1023.8
20180222165818 33 68 0.0 3.0 0.00 0.00 0.00 97 1023.6
20180222164249 33 67 0.0 3.0 0.00 0.00 0.00 97 1023.3
20180222162730 33 67 0.0 4.0 0.00 0.00 0.00 97 1023.0
20180222161211 32 72 1.0 4.0 0.00 0.00 0.00 96 1022.9
20180222155655 32 73 2.0 5.0 0.00 0.00 0.00 96 1022.6
20180222154134 32 74 0.0 3.0 0.00 0.00 0.00 96 1022.1
20180222152618 32 76 0.0 0.0 0.00 0.00 0.00 96 1021.8
20180222151106 32 76 1.0 5.0 0.00 0.00 0.00 96 1021.5
20180222145553 32 84 2.0 4.0 0.00 0.00 0.00 96 1021.2
20180222144041 32 52 0.0 3.0 0.00 0.00 0.00 96 1020.9
20180222142529 32 51 1.0 5.0 0.00 0.00 0.00 96 1020.6